DELTA 1 DEB, 28266

Orbit data source: Space-Track

DELTA 1 DEB, 28266 is space debris in LEO originally from a launch on Thu, 04 Jul 1968 UTC launched from the Air Force Western Test Range (AFWTR). Debris objects in space refer to the collection of defunct objects orbiting the Earth. Examples of debris include non-operational satellites, rocket bodies, and fragments generated from explosions, collisions, or faulty payload assembly.

Loading next visibility...
Identifier
28266, 1968-055L
Orbit
LEO
Country
Flag of USUS
Related business
Manufacturer
Unknown
Mission
Spacecraft
Bus & Motor
Unknown
Mass
Unknown
Launch date (UTC)
1968-07-04 (58 years ago)
Launch vehicle
Unknown
Launch site
Air Force Western Test Range (AFWTR)
Object type
Payload
Rocket body
Debris
Shape & HBR
Unknown shape, 0.1 m
Radar Cross Section
Small (<0.1 m²)

Expand to show TLE details & history
Last TLE update: 1 day ago

TLE from 1 day ago
0 DELTA 1 DEB
1 28266U 68055L   26177.50845203  .00002129  00000-0  62755-2 0  9999
2 28266 120.7013 356.3726 1664679 149.2352 221.7700 10.85252463521651
Epoch: 2026-06-26T12:12Z
TLE epoch observation values (Epoch: 2026-06-26T12:12:10.255Z)
Latitude
-0.00003°
Longitude
-101.30606°
Altitude
3,399.097 km
Speed
5.942 km/s
True Right ascension
23h 45m 29s
True Declination
0° 00' 00"
Sunlit
Object was in daylight at epoch
Visualization orbit readout
Latitude
Unknown
Longitude
Unknown
Altitude
Unknown
Speed
Unknown
Apparent Right ascension
Unknown
Apparent Declination
Unknown
Sunlit
N/A
Visualization observer readout
Local Sidereal Time
04:29:19
Azimuth
Unknown
Elevation
Unknown
Doppler factor
Unknown
Orbital elements
Apogee altitude
3,673.229 km
Perigee altitude
804.347 km
Semi-major axis
8,616.925 km
Eccentricity
0.16647
Inclination
120.7013°
RAAN
356.3726°
Arg. of periapsis
149.2352°
True anomaly
210.84209°
Mean anomaly
221.77°
Eccentric anomaly
216.14434°
Mean motion
2.71341 °/min
Orbital period
132.67 mins
BSTAR
0.0062755
Loading maneuver chart data...
Computing Atmospheric mass density...
Loading historical data...
Loading historical data...
Loading historical data...
Loading historical data...
Loading historical data...
Loading historical data...
Loading historical data...

Documentation

Showing up to 5 results
|